Location: Ostrava
(49.8330°N, 18.2830°E)
Time: 20:04:59
(UTC+02:00)

Cosmos 2221 - Visible Passes

Search period start: 05 May 2016 00:00
Search period end: 15 May 2016 00:00
Orbit: 595 x 617 km, 82.5° (Epoch: 04 May)

Date Brightness Start Highest point End Pass type
(mag) Time Alt. Az. Time Alt. Az. Time Alt. Az.
05 May 4.9 01:37:24 10° NNE 01:40:34 19° ENE 01:43:41 10° ESE visible
05 May 2.7 03:14:13 10° NNW 03:18:31 54° W 03:20:52 25° SSW visible
06 May 4.3 01:50:14 10° N 01:54:03 28° ENE 01:56:54 15° ESE visible
06 May 3.3 03:27:43 10° NNW 03:31:42 34° W 03:33:46 22° SW visible
07 May 3.5 02:03:15 10° N 02:07:29 43° ENE 02:09:49 23° SE visible
07 May 3.9 03:41:25 10° NW 03:44:48 22° W 03:46:41 17° WSW visible
08 May 2.7 02:16:25 10° N 02:20:50 69° ENE 02:22:46 32° SSE visible
08 May 4.5 03:55:30 10° NW 03:57:51 14° W 03:59:38 12° WSW visible
09 May 5.1 00:53:28 10° NNE 00:55:55 15° ENE 00:58:22 10° E visible
09 May 2.5 02:29:42 10° NNW 02:34:06 75° W 02:35:44 38° S visible
10 May 4.6 01:06:03 10° NNE 01:09:28 21° ENE 01:11:51 14° ESE visible
10 May 2.9 02:43:06 10° NNW 02:47:19 46° W 02:48:43 34° SW visible
11 May 4.0 01:18:57 10° N 01:22:56 32° ENE 01:24:51 22° ESE visible
11 May 3.6 02:56:40 10° NNW 03:00:28 29° W 03:01:44 25° WSW visible
12 May 3.2 01:32:01 10° N 01:36:19 50° ENE 01:37:53 33° SE visible
12 May 4.1 03:10:27 10° NW 03:13:33 19° W 03:14:45 17° WSW visible
13 May 5.2 00:09:58 10° NE 00:11:15 11° ENE 00:12:30 10° ENE visible
13 May 2.5 01:45:14 10° N 01:49:39 81° E 01:50:56 45° SSE visible
13 May 4.6 03:24:49 10° WNW 03:26:33 12° W 03:27:48 11° W visible
14 May 4.9 00:22:00 10° NNE 00:24:49 17° ENE 00:27:07 12° E visible
14 May 2.6 01:58:33 10° NNW 02:02:54 63° W 02:03:59 46° SSW visible
